[[{"header":{"parameterUnit":"m.s-1","parameterCategory":2,"la1":30.2991,"la2":30.254,"lo1":-89.0895,"lo2":-89.0444,"dy":0.0017,"dx":0.0017,"nx":28,"ny":28,"refTime":"2024-06-12T21:00:00:Z","depth":"0","parameterNumber":2,"parameterNumberName":"U-component_of_CURRENTS"},"data":[0,0,0,0,0,0,0,0,0,0,0,0,0,0,0,0,0,0,0,0,0,0,0,0,0,0,0,0,0,0,0,0,0,0,0,0,0,0,0,0,0,0,0,0,0,0,0,0,0,0,0,0,0,0,0,0,0,0,0.353,0.3531,0,0.3461,0.3459,0.3457,0.3323,0.3322,0.3321,0.3319,0.3247,0.3246,0.3245,0,0,0,0,0,0,0,0,0,0,0,0,0,0.3483,0.3484,0.353,0.3531,0.3531,0.3461,0.3459,0.3456,0.3324,0.3322,0.332,0.3319,0.3247,0.3246,0.3245,0,0,0,0,0,0,0,0,0,0,0,0,0,0.3455,0.3484,0.353,0.3466,0.3461,0.3461,0.3459,0.3456,0.3324,0.3322,0.332,0.3318,0.3247,0.3246,0.3245,0.3281,0,0,0.3242,0.3242,0,0,0,0,0,0,0,0,0.3457,0.3455,0.3475,0.3471,0.3465,0.341,0.3416,0.3402,0.3325,0.3362,0.3319,0.3317,0.3312,0.3305,0.3277,0.3277,0.3274,0.3242,0.3242,0.3241,0.3241,0,0,0,0,0,0,0,0.3459,0.3457,0.3489,0.3476,0.347,0.342,0.3412,0.3411,0.3339,0.3358,0.3352,0.3366,0.3306,0.3279,0.3275,0.3273,0.3242,0.3241,0.3241,0.324,0.3341,0.3344,0,0,0,0,0,0,0.3501,0.346,0.3492,0.3488,0.3471,0.3423,0.3415,0.3419,0.3339,0.3328,0.3368,0.336,0.3281,0.3276,0.3272,0.3349,0.3241,0.324,0.324,0.3338,0.3342,0.3345,0,0,0,0,0,0,0.35,0.3504,0.3495,0.3483,0.348,0.3428,0.3433,0.3419,0.3399,0.3348,0.3334,0.3365,0.3279,0.3274,0.327,0.3344,0.324,0.3239,0.3334,0.3339,0.3344,0.3479,0,0,0,0,0,0,0.3498,0.3503,0.3529,0.3486,0.3483,0.3537,0.3436,0.342,0.3417,0.3406,0.3342,0.3332,0.3277,0.3271,0.3269,0.3341,0.3238,0.333,0.3336,0.3342,0.347,0.3488,0.3503,0,0,0,0,0,0.3497,0.3534,0.353,0.3535,0.3516,0.3542,0.3535,0.348,0.342,0.3444,0.337,0.3334,0.331,0.3272,0.3268,0.3342,0.3327,0.3334,0.3342,0.3463,0.3484,0.3502,0,0,0,0,0,0,0.3507,0.3524,0.3518,0.3554,0.3575,0.3525,0.3543,0.3502,0.3459,0.3443,0.3356,0.3344,0.3369,0.3345,0.3305,0.3393,0.3323,0.3329,0.3416,0.3436,0.3452,0.3463,0.3237,0,0,0,0,0,0.3535,0.357,0.3583,0.3614,0.3635,0.3593,0.3596,0.3572,0.3532,0.3508,0.3455,0.3416,0.34,0.3404,0.3385,0.3434,0.3438,0.3487,0.3504,0.3517,0.3527,0.3604,0.3628,0.3369,0.3369,0.3369,0,0,0.3541,0.3563,0.3577,0.3622,0.362,0.3649,0.3586,0.3618,0.3618,0.3515,0.3492,0.3466,0.3422,0.3457,0.3473,0.3445,0.3598,0.3527,0.3539,0.354,0.3614,0.3639,0.3661,0.3374,0.3373,0.3373,0,0,0.3566,0.3604,0.3639,0.3676,0.3725,0.3714,0.3736,0.3719,0.3696,0.3697,0.3618,0.3641,0.3602,0.36,0.3587,0.3696,0.367,0.37,0.3803,0.3878,0.39,0.3919,0.3971,0.3994,0.3722,0.3722,0.3723,0,0.3568,0.3611,0.3656,0.3705,0.3728,0.3747,0.3775,0.3778,0.3752,0.3746,0.3716,0.369,0.3675,0.3712,0.375,0.3737,0.3755,0.3726,0.39,0.3919,0.3936,0.3984,0.4008,0.373,0.3729,0.3728,0.3727,0,0.361,0.3657,0.369,0.3749,0.3794,0.3837,0.3868,0.3894,0.3873,0.3861,0.3896,0.388,0.3865,0.3895,0.3849,0.3972,0.3937,0.39,0.3848,0.397,0.4014,0.4035,0.374,0.3738,0.3736,0.3734,0,0,0.3536,0.3684,0.3687,0.373,0.3819,0.3851,0.3903,0.3941,0.3954,0.3986,0.3995,0.4038,0.4042,0.4032,0.4019,0.4109,0.4266,0.4069,0.4069,0.4116,0.4421,0.4357,0.4374,0.4254,0.4258,0.4262,0.4407,0,0.3532,0.3634,0.3699,0.377,0.3821,0.3882,0.392,0.3975,0.3998,0.4027,0.4079,0.4089,0.409,0.4097,0.4196,0.4218,0.4327,0.4229,0.4298,0.4301,0.4226,0.4399,0.4219,0.433,0.4428,0.4431,0.4434,0,0.3516,0.3595,0.3669,0.3788,0.3811,0.3849,0.392,0.3962,0.4042,0.4062,0.4127,0.4141,0.426,0.4245,0.4415,0.4344,0.4411,0.4454,0.4459,0.4364,0.4278,0.4222,0.4365,0.4255,0.4466,0.4464,0.4462,0,0.3426,0.3556,0.3612,0.3655,0.3794,0.3816,0.3871,0.3956,0.3982,0.408,0.4107,0.4235,0.4274,0.4405,0.449,0.4465,0.4665,0.4632,0.4651,0.4645,0.4488,0.4461,0.4525,0.4799,0.4798,0.4798,0.4797,0,0.3385,0.3417,0.3575,0.3608,0.3653,0.3769,0.3803,0.3873,0.3963,0.401,0.4111,0.4167,0.4321,0.4428,0.4528,0.4649,0.4702,0.471,0.4701,0.453,0.4507,0.4395,0.4307,0.4803,0.4802,0.4801,0.48,0,0.3257,0.337,0.343,0.3576,0.361,0.3632,0.3736,0.3781,0.3874,0.3937,0.3971,0.4126,0.4278,0.4412,0.4611,0.4669,0.4678,0.4831,0.4609,0.4573,0.4483,0.4407,0.4331,0.4221,0.4904,0.4904,0.4904,0,0.3192,0.3225,0.3367,0.341,0.3463,0.3524,0.3577,0.3699,0.3755,0.391,0.3945,0.4099,0.42,0.4445,0.4591,0.4766,0.4638,0.4694,0.464,0.4496,0.4407,0.4254,0.4155,0.4493,0.449,0.4487,0.4484,0,0.3064,0.3118,0.3195,0.3293,0.3352,0.3412,0.3502,0.3521,0.3679,0.3742,0.3862,0.3951,0.4185,0.4284,0.4491,0.4582,0.4453,0.464,0.4556,0.4164,0.3935,0.3814,0.4365,0.4458,0.4461,0.4462,0.4464,0.4465,0.2947,0.2978,0.3108,0.3186,0.3252,0.3308,0.3308,0.3414,0.3469,0.3557,0.3728,0.3806,0.399,0.4262,0.4316,0.4297,0.431,0.4243,0.4191,0.4072,0.3878,0.4369,0.4403,0.4406,0.4408,0.4409,0.4411,0,0.2853,0.294,0.301,0.3113,0.3146,0.3216,0.3275,0.3258,0.3276,0.3405,0.3494,0.3611,0.3711,0.3838,0.3945,0.3877,0.3742,0.3786,0.3527,0.3476,0.3986,0.388,0.3719,0.3719,0.3719,0.372,0.372,0.372,0.2821,0.2892,0.2963,0.3007,0.3055,0.304,0.3041,0.3014,0.3062,0.306,0.3099,0.3215,0.341,0.3579,0.3544,0.3467,0.3239,0.3115,0.3137,0.3486,0.3523,0.3559,0.3444,0.3195,0.3194,0.2513,0.2508,0.2503]},{"header":{"parameterUnit":"m.s-1","parameterCategory":2,"la1":30.2991,"la2":30.254,"lo1":-89.0895,"lo2":-89.0444,"dy":0.0017,"dx":0.0017,"nx":28,"ny":28,"refTime":"2024-06-12T21:00:00:Z","depth":"0","parameterNumber":3,"parameterNumberName":"V-component_of_CURRENTS"},"data":[0,0,0,0,0,0,0,0,0,0,0,0,0,0,0,0,0,0,0,0,0,0,0,0,0,0,0,0,0,0,0,0,0,0,0,0,0,0,0,0,0,0,0,0,0,0,0,0,0,0,0,0,0,0,0,0,0,0,-0.0221,-0.0221,0,-0.0268,-0.027,-0.0271,-0.0333,-0.0333,-0.0333,-0.0334,-0.0523,-0.0528,-0.0532,0,0,0,0,0,0,0,0,0,0,0,0,0,-0.0309,-0.0307,-0.0221,-0.0221,-0.022,-0.0268,-0.027,-0.0271,-0.0332,-0.0333,-0.0333,-0.0334,-0.0522,-0.0527,-0.0533,0,0,0,0,0,0,0,0,0,0,0,0,0,-0.0311,-0.0306,-0.0221,-0.0252,-0.0255,-0.0268,-0.027,-0.0271,-0.0332,-0.0333,-0.0334,-0.0334,-0.052,-0.0527,-0.0534,-0.0566,0,0,-0.0555,-0.0558,0,0,0,0,0,0,0,0,-0.0311,-0.0309,-0.0247,-0.025,-0.0253,-0.0289,-0.037,-0.0374,-0.0332,-0.031,-0.0334,-0.0334,-0.0453,-0.0466,-0.0481,-0.0574,-0.0583,-0.0556,-0.056,-0.0563,-0.0565,0,0,0,0,0,0,0,-0.0311,-0.0308,-0.0246,-0.0247,-0.025,-0.0307,-0.0307,-0.0372,-0.0386,-0.0312,-0.0315,-0.0309,-0.0457,-0.0474,-0.0486,-0.0585,-0.0556,-0.0562,-0.0566,-0.0569,-0.066,-0.0658,0,0,0,0,0,0,-0.0283,-0.0306,-0.0245,-0.0247,-0.0276,-0.0304,-0.0305,-0.0282,-0.0382,-0.0395,-0.0309,-0.0312,-0.0462,-0.0478,-0.0493,-0.0486,-0.0563,-0.057,-0.0574,-0.0662,-0.066,-0.0658,0,0,0,0,0,0,-0.0285,-0.0277,-0.0243,-0.0274,-0.0273,-0.03,-0.0276,-0.0283,-0.0293,-0.0377,-0.0394,-0.031,-0.0463,-0.0484,-0.0523,-0.0496,-0.0573,-0.0579,-0.0664,-0.0661,-0.0659,-0.0504,0,0,0,0,0,0,-0.0287,-0.0277,-0.0266,-0.0271,-0.027,-0.0237,-0.0275,-0.0283,-0.0286,-0.0291,-0.0383,-0.0402,-0.0465,-0.0512,-0.053,-0.0507,-0.0585,-0.0666,-0.0663,-0.066,-0.0511,-0.0496,-0.0483,0,0,0,0,0,-0.029,-0.0265,-0.0265,-0.0259,-0.0249,-0.0235,-0.024,-0.0268,-0.0285,-0.0282,-0.0332,-0.0399,-0.0504,-0.0516,-0.0538,-0.0516,-0.0668,-0.0664,-0.066,-0.0518,-0.0499,-0.0484,0,0,0,0,0,0,-0.0291,-0.0268,-0.0269,-0.0236,-0.0229,-0.0243,-0.0243,-0.0256,-0.0293,-0.03,-0.0383,-0.0404,-0.0426,-0.049,-0.0502,-0.053,-0.0594,-0.0595,-0.0479,-0.0462,-0.0449,-0.0416,-0.0591,0,0,0,0,0,-0.0283,-0.0265,-0.0247,-0.0222,-0.0212,-0.0225,-0.0228,-0.0236,-0.0259,-0.0275,-0.033,-0.0387,-0.0427,-0.0459,-0.0509,-0.0534,-0.0551,-0.0531,-0.0516,-0.0504,-0.0491,-0.0463,-0.0444,-0.0645,-0.0645,-0.0645,0,0,-0.0272,-0.0262,-0.0248,-0.0223,-0.0222,-0.019,-0.023,-0.0215,-0.0192,-0.0293,-0.0293,-0.0345,-0.0421,-0.0435,-0.0451,-0.0487,-0.0455,-0.0499,-0.0488,-0.0481,-0.0456,-0.0436,-0.0419,-0.0642,-0.0642,-0.0643,0,0,-0.0237,-0.023,-0.0199,-0.0186,-0.0169,-0.017,-0.0155,-0.0153,-0.016,-0.0158,-0.0215,-0.0235,-0.0312,-0.0342,-0.0373,-0.0314,-0.0377,-0.0341,-0.0254,-0.0225,-0.0208,-0.0193,-0.0179,-0.0164,-0.0339,-0.0338,-0.0338,0,-0.0221,-0.0178,-0.0189,-0.0153,-0.0134,-0.0148,-0.0101,-0.0103,-0.0115,-0.0113,-0.0138,-0.0194,-0.0258,-0.0261,-0.0236,-0.0281,-0.0282,-0.031,-0.0204,-0.019,-0.0177,-0.0167,-0.0152,-0.0331,-0.0331,-0.0332,-0.0333,0,-0.0156,-0.0125,-0.0103,-0.006,-0.0046,-0.0009,0.0004,0.0014,0.0008,0.0005,0.001,-0.0049,-0.0084,-0.01,-0.0155,-0.0104,-0.0138,-0.0182,-0.024,-0.0147,-0.0143,-0.013,-0.0319,-0.0322,-0.0324,-0.0326,0,0,-0.0089,-0.0061,-0.0049,-0.0025,0.0008,0.0033,0.0073,0.0107,0.0135,0.0129,0.0167,0.0125,0.0096,0.0062,0.0002,0.0025,0.0115,-0.0033,-0.0036,-0.0007,0.0177,0.012,0.0127,0.0093,0.0096,0.0098,0.0149,0,-0.0024,0.0045,0.0044,0.0118,0.016,0.0154,0.019,0.021,0.0216,0.0245,0.0218,0.0221,0.0157,0.0146,0.0168,0.0121,0.0152,0.0104,0.0071,0.007,0.0018,0.0141,0.0119,0.016,0.016,0.0162,0.0164,0,0.006,0.0087,0.0164,0.0199,0.0219,0.0256,0.0305,0.0335,0.0361,0.0364,0.0376,0.0346,0.037,0.0307,0.032,0.0292,0.0256,0.0227,0.0228,0.0128,0.0037,0.0062,0.0181,-0.0023,0.0182,0.0181,0.0179,0,0.0119,0.0179,0.0234,0.0253,0.0294,0.0321,0.0344,0.0373,0.0404,0.0443,0.0475,0.0482,0.0498,0.0478,0.041,0.0377,0.0426,0.0364,0.0284,0.0278,0.0228,0.0213,0.0155,0.0397,0.0397,0.0397,0.0397,0,0.0199,0.0247,0.0263,0.0299,0.0358,0.037,0.0434,0.0453,0.0498,0.0563,0.0539,0.0601,0.0548,0.0552,0.0479,0.043,0.0483,0.0335,0.0305,0.028,0.0269,0.006,-0.0043,0.0399,0.0398,0.0398,0.0398,0,0.0265,0.0281,0.0339,0.0376,0.0389,0.0432,0.0482,0.053,0.0565,0.0656,0.0679,0.0715,0.074,0.0664,0.0633,0.0521,0.0364,0.0427,0.0392,0.0358,0.0075,-0.0017,-0.008,-0.0161,0.0366,0.0366,0.0365,0,0.0308,0.0345,0.0387,0.0415,0.0434,0.0486,0.0527,0.0562,0.0622,0.0737,0.0799,0.0847,0.0915,0.0834,0.0661,0.054,0.0366,0.0383,0.0312,0.0088,-0.0036,-0.0103,-0.0171,0.0313,0.0312,0.0311,0.0311,0,0.0378,0.0387,0.0425,0.0474,0.0518,0.0572,0.0638,0.0699,0.0774,0.0877,0.103,0.1102,0.1023,0.0927,0.0707,0.0574,0.0229,0.0358,0.0153,-0.0046,-0.0145,-0.0248,0.023,0.0303,0.0304,0.0304,0.0305,0.0305,0.0419,0.0449,0.0486,0.0533,0.0586,0.0668,0.0741,0.0845,0.0982,0.1189,0.1222,0.1397,0.1145,0.0874,0.0638,0.0144,0.0186,-0.0008,-0.0086,-0.0123,-0.0243,0.0207,0.0215,0.0216,0.0216,0.0216,0.0216,0,0.0458,0.0488,0.054,0.0604,0.0676,0.0692,0.0824,0.0937,0.114,0.1362,0.1532,0.1536,0.119,0.0793,0.0162,-0.0217,-0.0363,-0.0439,-0.0544,-0.0581,-0.0153,-0.0205,-0.032,-0.032,-0.032,-0.032,-0.032,-0.0319,0.048,0.0527,0.0547,0.0663,0.0723,0.0847,0.0937,0.1138,0.1328,0.1648,0.1817,0.1909,0.1577,0.0393,-0.0461,-0.0672,-0.0929,-0.0983,-0.1099,-0.0845,-0.0812,-0.078,-0.0854,-0.1104,-0.1105,-0.1501,-0.1505,-0.1508]}],[{"header":{"parameterUnit":"m.s-1","parameterCategory":2,"la1":30.2991,"la2":30.254,"lo1":-89.0895,"lo2":-89.0444,"dy":0.0017,"dx":0.0017,"nx":28,"ny":28,"refTime":"2024-06-12T21:00:00:Z","depth":"2","parameterNumber":2,"parameterNumberName":"U-component_of_CURRENTS"},"data":[0,0,0,0,0,0,0,0,0,0,0,0,0,0,0,0,0,0,0,0,0,0,0,0,0,0,0,0,0,0,0,0,0,0,0,0,0,0,0,0,0,0,0,0,0,0,0,0,0,0,0,0,0,0,0,0,0,0,0.2424,0.2424,0,0.2633,0.2637,0.2642,0.2846,0.2846,0.2846,0.2846,0.2877,0.2878,0.2878,0,0,0,0,0,0,0,0,0,0,0,0,0,0.2463,0.2462,0.2424,0.2424,0.2424,0.2632,0.2637,0.2643,0.2846,0.2846,0.2846,0.2846,0.2877,0.2878,0.2879,0,0,0,0,0,0,0,0,0,0,0,0,0,0.2562,0.2462,0.2424,0.253,0.2539,0.2631,0.2638,0.2644,0.2846,0.2846,0.2846,0.2847,0.2876,0.2878,0.2879,0.2884,0,0,0.2882,0.2883,0,0,0,0,0,0,0,0,0.2556,0.2564,0.2514,0.2522,0.2533,0.2689,0.2661,0.2706,0.2846,0.276,0.2846,0.2847,0.2779,0.2788,0.287,0.2885,0.2886,0.2882,0.2883,0.2883,0.2884,0,0,0,0,0,0,0,0.2549,0.2558,0.2536,0.2513,0.2525,0.2654,0.2669,0.2675,0.2785,0.2767,0.2775,0.2753,0.2787,0.2869,0.2871,0.2887,0.2882,0.2883,0.2884,0.2884,0.3037,0.304,0,0,0,0,0,0,0.2452,0.2549,0.2528,0.2539,0.2513,0.265,0.2668,0.2662,0.2789,0.2802,0.2753,0.2761,0.2867,0.287,0.2872,0.2979,0.2883,0.2884,0.2885,0.3034,0.3038,0.3041,0,0,0,0,0,0,0.2452,0.2449,0.252,0.2526,0.254,0.2644,0.2639,0.2665,0.2746,0.2775,0.279,0.2801,0.2867,0.2871,0.2945,0.2977,0.2885,0.2886,0.303,0.3035,0.3039,0.3129,0,0,0,0,0,0,0.2453,0.2449,0.2468,0.2519,0.2535,0.2603,0.2636,0.2668,0.2718,0.2733,0.2819,0.2825,0.2868,0.2944,0.2946,0.2977,0.2887,0.3025,0.3032,0.3038,0.3122,0.3137,0.315,0,0,0,0,0,0.2454,0.2473,0.2469,0.2467,0.254,0.2602,0.263,0.2722,0.2719,0.2791,0.2862,0.2822,0.2984,0.2948,0.295,0.2981,0.3022,0.303,0.3037,0.3116,0.3134,0.3149,0,0,0,0,0,0,0.2519,0.2493,0.2491,0.2506,0.255,0.2626,0.269,0.2709,0.283,0.284,0.2869,0.2883,0.2962,0.2959,0.2917,0.3049,0.2993,0.3001,0.3052,0.3069,0.3082,0.3045,0.2888,0,0,0,0,0,0.252,0.2533,0.2525,0.2551,0.2555,0.2613,0.2656,0.2701,0.2769,0.2827,0.2889,0.2945,0.2997,0.3021,0.3082,0.3135,0.3114,0.3158,0.3172,0.3183,0.3158,0.3181,0.3193,0.3066,0.3066,0.3066,0,0,0.2547,0.2536,0.2545,0.2565,0.2609,0.2676,0.2652,0.271,0.2787,0.2796,0.2957,0.2992,0.3025,0.3132,0.3161,0.3128,0.322,0.3193,0.3202,0.317,0.319,0.3201,0.3212,0.3071,0.307,0.307,0,0,0.2605,0.2593,0.2623,0.267,0.2696,0.2733,0.2728,0.2805,0.2866,0.2989,0.3014,0.3063,0.3181,0.3214,0.3232,0.3336,0.3294,0.3359,0.339,0.3415,0.3424,0.3431,0.3457,0.3466,0.3362,0.3362,0.3362,0,0.2673,0.2657,0.2654,0.2715,0.2732,0.2744,0.2788,0.2881,0.2994,0.2997,0.3057,0.319,0.3219,0.3264,0.3342,0.3358,0.3376,0.3322,0.3428,0.3435,0.3441,0.3465,0.3474,0.3367,0.3367,0.3366,0.3366,0,0.2728,0.2758,0.2782,0.2847,0.2895,0.2931,0.2982,0.3051,0.3092,0.3149,0.322,0.3308,0.3359,0.3393,0.3415,0.3459,0.3462,0.3443,0.3374,0.3458,0.348,0.3488,0.3375,0.3373,0.3372,0.337,0,0,0.2736,0.281,0.281,0.2836,0.2936,0.2957,0.3065,0.3097,0.3115,0.3266,0.3288,0.3418,0.3419,0.3439,0.3454,0.3488,0.3577,0.3501,0.35,0.3505,0.365,0.3484,0.3475,0.359,0.3591,0.3592,0.366,0,0.2768,0.2847,0.2878,0.2967,0.2987,0.3034,0.3126,0.3179,0.3235,0.3302,0.3329,0.3411,0.3451,0.3478,0.3522,0.3551,0.3596,0.356,0.3585,0.3585,0.3407,0.3477,0.3253,0.3279,0.3667,0.3668,0.3669,0,0.2753,0.2796,0.2861,0.2932,0.2941,0.3032,0.3051,0.3146,0.3226,0.3274,0.3333,0.3384,0.3452,0.3488,0.3581,0.3568,0.362,0.3651,0.3654,0.3455,0.3429,0.3253,0.3277,0.368,0.3679,0.3678,0.3678,0,0.2633,0.2749,0.2768,0.2815,0.2944,0.2961,0.3029,0.3113,0.3143,0.3254,0.3286,0.338,0.3427,0.3515,0.3598,0.3613,0.3685,0.37,0.3596,0.3587,0.3369,0.3335,0.3763,0.3763,0.3763,0.3763,0.3763,0,0.2581,0.2603,0.272,0.2744,0.2764,0.289,0.2915,0.2998,0.3093,0.3126,0.3265,0.3296,0.3444,0.3501,0.3591,0.3597,0.3683,0.3593,0.3583,0.3399,0.3369,0.3681,0.367,0.3765,0.3765,0.3764,0.3764,0,0.2452,0.2535,0.2568,0.2681,0.2714,0.2733,0.2851,0.2869,0.3002,0.3048,0.3091,0.3234,0.3334,0.3441,0.3563,0.3547,0.3595,0.3578,0.3347,0.3306,0.3495,0.349,0.3479,0.3473,0.3468,0.3465,0.3461,0,0.2401,0.2404,0.249,0.2498,0.2557,0.2613,0.2646,0.2799,0.2833,0.2994,0.2998,0.3121,0.3175,0.3269,0.33,0.3376,0.35,0.3164,0.3122,0.3469,0.3463,0.3464,0.3465,0.2913,0.2906,0.29,0.2895,0,0.2294,0.232,0.2337,0.2353,0.2385,0.2421,0.2501,0.2508,0.2684,0.2723,0.2804,0.2866,0.2984,0.2938,0.3,0.3019,0.313,0.3035,0.3464,0.2989,0.2932,0.2927,0.2947,0.284,0.2846,0.285,0.2853,0.2855,0.2202,0.2171,0.2186,0.2188,0.2222,0.2239,0.2217,0.2295,0.2317,0.2394,0.2539,0.2581,0.2667,0.2646,0.2604,0.2592,0.2809,0.2724,0.2745,0.2773,0.2664,0.2598,0.2426,0.2429,0.2431,0.2433,0.2435,0,0.2063,0.2049,0.2029,0.2025,0.2,0.2103,0.2111,0.2092,0.2058,0.2166,0.2217,0.2105,0.2099,0.2232,0.2134,0.212,0.2139,0.2046,0.208,0.2135,0.2184,0.2047,0.1644,0.1642,0.1639,0.1637,0,0,0.1994,0.1902,0.1879,0.1803,0.1836,0.1788,0.1774,0.1786,0.1823,0.1772,0.1787,0.1986,0.2136,0.1847,0.1821,0.1723,0.191,0.1655,0.2295,0.2388,0.2434,0.2583,0.2434,0,0,0,0,0]},{"header":{"parameterUnit":"m.s-1","parameterCategory":2,"la1":30.2991,"la2":30.254,"lo1":-89.0895,"lo2":-89.0444,"dy":0.0017,"dx":0.0017,"nx":28,"ny":28,"refTime":"2024-06-12T21:00:00:Z","depth":"2","parameterNumber":3,"parameterNumberName":"V-component_of_CURRENTS"},"data":[0,0,0,0,0,0,0,0,0,0,0,0,0,0,0,0,0,0,0,0,0,0,0,0,0,0,0,0,0,0,0,0,0,0,0,0,0,0,0,0,0,0,0,0,0,0,0,0,0,0,0,0,0,0,0,0,0,0,-0.0039,-0.0039,0,-0.013,-0.0133,-0.0135,-0.0248,-0.0248,-0.0248,-0.0248,-0.0441,-0.0446,-0.0451,0,0,0,0,0,0,0,0,0,0,0,0,0,-0.0126,-0.0125,-0.0039,-0.0039,-0.0038,-0.013,-0.0133,-0.0136,-0.0248,-0.0248,-0.0248,-0.0248,-0.044,-0.0446,-0.0452,0,0,0,0,0,0,0,0,0,0,0,0,0,-0.0157,-0.0124,-0.0039,-0.0092,-0.0096,-0.0129,-0.0133,-0.0137,-0.0248,-0.0248,-0.0248,-0.0248,-0.0438,-0.0445,-0.0453,-0.0495,0,0,-0.0476,-0.0479,0,0,0,0,0,0,0,0,-0.0155,-0.0156,-0.0084,-0.0088,-0.0093,-0.0162,-0.0234,-0.0256,-0.0248,-0.0209,-0.0248,-0.0248,-0.0345,-0.0361,-0.0402,-0.0505,-0.0513,-0.0476,-0.0481,-0.0484,-0.0486,0,0,0,0,0,0,0,-0.0152,-0.0153,-0.0094,-0.0083,-0.0088,-0.0166,-0.0171,-0.024,-0.0291,-0.0213,-0.0216,-0.0198,-0.0351,-0.0394,-0.0407,-0.0516,-0.0476,-0.0483,-0.0487,-0.049,-0.0648,-0.0648,0,0,0,0,0,0,-0.0095,-0.015,-0.009,-0.0094,-0.0104,-0.0162,-0.0169,-0.0154,-0.0288,-0.0303,-0.0197,-0.0202,-0.0381,-0.0398,-0.0414,-0.0453,-0.0484,-0.0491,-0.0495,-0.0648,-0.0648,-0.0647,0,0,0,0,0,0,-0.0097,-0.0089,-0.0086,-0.011,-0.0113,-0.0157,-0.0142,-0.0156,-0.0183,-0.0272,-0.0293,-0.0206,-0.0382,-0.0403,-0.047,-0.0462,-0.0494,-0.0501,-0.0649,-0.0648,-0.0648,-0.0543,0,0,0,0,0,0,-0.01,-0.009,-0.0089,-0.0106,-0.0108,-0.0103,-0.0141,-0.0157,-0.0163,-0.0171,-0.0287,-0.0306,-0.0384,-0.0458,-0.0477,-0.0473,-0.0507,-0.0649,-0.0648,-0.0648,-0.0547,-0.0539,-0.0532,0,0,0,0,0,-0.0103,-0.0091,-0.0089,-0.0082,-0.0096,-0.01,-0.0113,-0.0158,-0.0163,-0.0184,-0.0253,-0.0302,-0.0467,-0.0464,-0.0487,-0.0484,-0.0649,-0.0649,-0.0648,-0.055,-0.054,-0.0532,0,0,0,0,0,0,-0.0129,-0.01,-0.0099,-0.0079,-0.0081,-0.0112,-0.0129,-0.0139,-0.0211,-0.0219,-0.0306,-0.0332,-0.0383,-0.0446,-0.044,-0.0526,-0.0563,-0.0566,-0.0481,-0.0473,-0.0465,-0.0449,-0.0514,0,0,0,0,0,-0.0124,-0.0117,-0.0093,-0.0083,-0.0073,-0.0094,-0.0105,-0.0122,-0.0163,-0.0195,-0.0265,-0.034,-0.0401,-0.0443,-0.0515,-0.0567,-0.0598,-0.0577,-0.057,-0.0563,-0.0565,-0.0599,-0.0594,-0.0645,-0.0645,-0.0645,0,0,-0.013,-0.0112,-0.0108,-0.0089,-0.0098,-0.0097,-0.0108,-0.0107,-0.0117,-0.0204,-0.0262,-0.0317,-0.0407,-0.0466,-0.0495,-0.0518,-0.056,-0.0562,-0.0556,-0.0561,-0.0598,-0.0593,-0.0588,-0.0644,-0.0644,-0.0645,0,0,-0.013,-0.0114,-0.0106,-0.0104,-0.0086,-0.0097,-0.0079,-0.0094,-0.0117,-0.0155,-0.0215,-0.0261,-0.0365,-0.0428,-0.047,-0.0463,-0.0513,-0.0478,-0.044,-0.0472,-0.0468,-0.0465,-0.0468,-0.0466,-0.0482,-0.0482,-0.0482,0,-0.014,-0.0114,-0.0108,-0.0098,-0.0087,-0.0083,-0.0068,-0.0094,-0.0135,-0.0145,-0.016,-0.0281,-0.0348,-0.0412,-0.0408,-0.0447,-0.0462,-0.0463,-0.0461,-0.0459,-0.0457,-0.0462,-0.0461,-0.0477,-0.0477,-0.0478,-0.0478,0,-0.0129,-0.0115,-0.0105,-0.0091,-0.009,-0.0073,-0.007,-0.0082,-0.0085,-0.0108,-0.0148,-0.0234,-0.03,-0.0322,-0.0366,-0.039,-0.0399,-0.0437,-0.0477,-0.0446,-0.0452,-0.0453,-0.0469,-0.0471,-0.0473,-0.0474,0,0,-0.0107,-0.0101,-0.0093,-0.008,-0.0075,-0.006,-0.0069,-0.0065,-0.0053,-0.0103,-0.01,-0.0194,-0.0213,-0.0261,-0.0314,-0.0347,-0.0333,-0.0378,-0.0382,-0.0368,-0.0376,-0.0382,-0.0384,-0.0366,-0.0366,-0.0366,-0.0373,0,-0.009,-0.0069,-0.0073,-0.0051,-0.0027,-0.0033,-0.0037,-0.0042,-0.0047,-0.0053,-0.0111,-0.0139,-0.0197,-0.0207,-0.0248,-0.0308,-0.0336,-0.0326,-0.0421,-0.0423,-0.0423,-0.0386,-0.0354,-0.0358,-0.0375,-0.0375,-0.0375,0,-0.0049,-0.0042,-0.0017,-0.0002,0.0011,0.0014,0.004,0.0037,0.0021,0.0016,-0.0019,-0.0057,-0.0104,-0.015,-0.0244,-0.0229,-0.0292,-0.0345,-0.0348,-0.0396,-0.0432,-0.0401,-0.036,-0.0378,-0.0377,-0.0377,-0.0377,0,0.0007,0.0015,0.004,0.0044,0.0047,0.0061,0.0066,0.0061,0.008,0.007,0.0095,0.0014,0.0008,-0.0093,-0.0183,-0.021,-0.0271,-0.033,-0.0401,-0.0401,-0.0416,-0.0418,-0.0404,-0.0404,-0.0404,-0.0404,-0.0404,0,0.0057,0.0083,0.007,0.0089,0.0127,0.0115,0.0156,0.0154,0.0162,0.0208,0.0144,0.0175,0.0025,-0.0024,-0.014,-0.0248,-0.0239,-0.0383,-0.0406,-0.0376,-0.0374,-0.0439,-0.0443,-0.0404,-0.0404,-0.0404,-0.0404,0,0.0126,0.0116,0.0149,0.0151,0.016,0.0193,0.022,0.0255,0.0258,0.0324,0.0333,0.0303,0.0258,0.0112,-0.003,-0.0172,-0.0293,-0.0342,-0.0277,-0.0294,-0.0414,-0.0413,-0.0431,-0.0432,-0.0432,-0.0432,-0.0432,0,0.0162,0.0184,0.0202,0.0227,0.0233,0.0269,0.0306,0.0308,0.0363,0.0419,0.0477,0.0449,0.0471,0.0268,0.0021,-0.0181,-0.0235,-0.0322,-0.0395,-0.0397,-0.0418,-0.0417,-0.0415,-0.0359,-0.0358,-0.0358,-0.0357,0,0.0222,0.0228,0.0248,0.0299,0.0343,0.0395,0.0455,0.0521,0.056,0.065,0.0774,0.0794,0.0589,0.0399,0.008,-0.0074,-0.0292,-0.0324,-0.0336,-0.0361,-0.0331,-0.0351,-0.0352,-0.0354,-0.0355,-0.0355,-0.0355,-0.0355,0.0264,0.0288,0.0315,0.0375,0.0432,0.0541,0.0642,0.0729,0.0873,0.1016,0.0988,0.1018,0.0722,0.0344,0.0079,-0.0231,-0.0247,-0.0382,-0.0382,-0.0383,-0.0378,-0.0351,-0.0375,-0.0375,-0.0375,-0.0376,-0.0376,0,0.0302,0.0329,0.0387,0.0474,0.0581,0.0582,0.076,0.0882,0.1114,0.1165,0.1259,0.1013,0.076,0.0436,-0.0019,-0.0304,-0.0332,-0.0386,-0.0365,-0.0366,-0.0367,-0.0362,-0.0355,-0.0355,-0.0356,-0.0356,0,0,0.032,0.0378,0.0416,0.0596,0.0669,0.0858,0.099,0.1165,0.1263,0.1376,0.1356,0.1235,0.0837,0.051,0.0145,-0.01,-0.0169,-0.0148,-0.0138,-0.007,-0.0068,-0.034,-0.033,0,0,0,0,0]}],[{"header":{"parameterUnit":"m.s-1","parameterCategory":2,"la1":30.2991,"la2":30.254,"lo1":-89.0895,"lo2":-89.0444,"dy":0.0017,"dx":0.0017,"nx":28,"ny":28,"refTime":"2024-06-12T21:00:00:Z","depth":"4","parameterNumber":2,"parameterNumberName":"U-component_of_CURRENTS"},"data":[0,0,0,0,0,0,0,0,0,0,0,0,0,0,0,0,0,0,0,0,0,0,0,0,0,0,0,0,0,0,0,0,0,0,0,0,0,0,0,0,0,0,0,0,0,0,0,0,0,0,0,0,0,0,0,0,0,0,0.1158,0.1157,0,0.0937,0.0933,0.0928,0.0781,0.0782,0.0783,0.0784,0.0975,0.0979,0.0983,0,0,0,0,0,0,0,0,0,0,0,0,0,0.1132,0.1134,0.1158,0.1157,0.1157,0.0938,0.0933,0.0927,0.0781,0.0782,0.0784,0.0785,0.0974,0.0978,0.0983,0,0,0,0,0,0,0,0,0,0,0,0,0,0.1029,0.1134,0.1158,0.1074,0.1066,0.0939,0.0932,0.0926,0.0781,0.0782,0.0784,0.0786,0.0972,0.0978,0.0984,0.0987,0,0,0.1002,0.1005,0,0,0,0,0,0,0,0,0.1036,0.1028,0.1087,0.108,0.1071,0.0909,0.0994,0.0975,0.078,0.0864,0.0784,0.0786,0.1005,0.1008,0.0924,0.0996,0.1005,0.1003,0.1007,0.1009,0.1011,0,0,0,0,0,0,0,0.1043,0.1035,0.1047,0.1087,0.1077,0.094,0.0927,0.0984,0.0918,0.0857,0.0852,0.0864,0.1001,0.0918,0.0929,0.1007,0.1003,0.1008,0.1012,0.1014,0.1259,0.1262,0,0,0,0,0,0,0.1133,0.1044,0.1054,0.1043,0.1083,0.0942,0.0927,0.094,0.0908,0.0908,0.0863,0.0858,0.0907,0.0922,0.0937,0.1108,0.1009,0.1015,0.1018,0.1256,0.126,0.1263,0,0,0,0,0,0,0.1133,0.1136,0.1064,0.1056,0.104,0.0946,0.0958,0.0936,0.0921,0.0912,0.0915,0.0884,0.0909,0.0928,0.1029,0.1111,0.1018,0.1023,0.1253,0.1257,0.1261,0.1349,0,0,0,0,0,0,0.1133,0.1137,0.1157,0.1063,0.1045,0.1019,0.0959,0.0931,0.0934,0.0926,0.0932,0.0944,0.0911,0.102,0.1035,0.1117,0.1028,0.1249,0.1255,0.126,0.1343,0.1356,0.1367,0,0,0,0,0,0.1132,0.1145,0.1159,0.1161,0.1083,0.1022,0.0996,0.0916,0.0935,0.0912,0.0937,0.0948,0.1066,0.1027,0.1044,0.113,0.1246,0.1253,0.1259,0.1337,0.1353,0.1367,0,0,0,0,0,0,0.1096,0.1131,0.1144,0.1156,0.1123,0.1007,0.099,0.097,0.0952,0.0982,0.0981,0.0994,0.111,0.1115,0.1073,0.1216,0.1162,0.1172,0.1215,0.1231,0.1243,0.1201,0.1033,0,0,0,0,0,0.1123,0.1166,0.1153,0.1159,0.1172,0.1107,0.108,0.1041,0.1026,0.1015,0.0998,0.1043,0.1132,0.1182,0.1207,0.1301,0.1263,0.1369,0.1382,0.1392,0.137,0.139,0.1401,0.1284,0.1284,0.1284,0,0,0.1096,0.1137,0.1146,0.1161,0.1134,0.1102,0.1088,0.1076,0.1043,0.1059,0.1014,0.1088,0.1167,0.1237,0.1294,0.1267,0.1405,0.14,0.1409,0.138,0.1398,0.1409,0.1418,0.1288,0.1288,0.1287,0,0,0.1065,0.1133,0.1155,0.1158,0.1181,0.1133,0.117,0.1093,0.1071,0.1078,0.1105,0.1206,0.1269,0.1308,0.137,0.148,0.1468,0.1544,0.158,0.1602,0.161,0.1617,0.1569,0.1571,0.1552,0.1552,0.1552,0,0.1021,0.1077,0.1135,0.1157,0.1156,0.1174,0.1156,0.1125,0.1067,0.1084,0.1087,0.1206,0.1284,0.1428,0.1478,0.1506,0.1504,0.152,0.1614,0.1621,0.1627,0.1575,0.1576,0.1557,0.1557,0.1556,0.1556,0,0.0998,0.1051,0.1072,0.1116,0.1105,0.111,0.1111,0.1094,0.1111,0.1086,0.1199,0.1263,0.1337,0.1424,0.1508,0.1634,0.1612,0.1624,0.1567,0.1643,0.1585,0.1584,0.1564,0.1563,0.1561,0.156,0,0,0.0877,0.1023,0.1033,0.1072,0.1107,0.1087,0.1091,0.1093,0.1147,0.1117,0.1161,0.1335,0.1388,0.146,0.1574,0.1638,0.171,0.1685,0.1684,0.1617,0.1731,0.1676,0.1669,0.1769,0.177,0.1771,0.1666,0,0.0837,0.0882,0.096,0.0967,0.0988,0.104,0.1038,0.1057,0.1111,0.1139,0.125,0.1356,0.1403,0.1525,0.1576,0.1715,0.1718,0.1733,0.1682,0.1677,0.1606,0.167,0.1774,0.1665,0.1665,0.1665,0.1665,0,0.0785,0.0844,0.0855,0.0959,0.0976,0.098,0.1048,0.1055,0.1147,0.1206,0.1296,0.138,0.1508,0.1536,0.164,0.1668,0.169,0.1742,0.1738,0.1648,0.1623,0.158,0.1663,0.1663,0.1663,0.1663,0.1663,0,0.0676,0.0772,0.0791,0.0816,0.0906,0.0949,0.0994,0.1086,0.1137,0.1276,0.1339,0.1443,0.1536,0.1571,0.1676,0.1689,0.1754,0.1749,0.1661,0.1654,0.1689,0.1683,0.1743,0.1743,0.1743,0.1743,0.1744,0,0.0608,0.0642,0.0771,0.079,0.0843,0.0922,0.101,0.1086,0.1206,0.1277,0.1385,0.1457,0.1574,0.1626,0.166,0.166,0.17,0.1654,0.1638,0.1728,0.1727,0.1686,0.1681,0.1739,0.174,0.1741,0.1742,0,0.0501,0.0579,0.0625,0.0751,0.0805,0.0843,0.1009,0.1071,0.121,0.1304,0.1352,0.1487,0.1573,0.162,0.1711,0.1648,0.1661,0.163,0.1687,0.1677,0.1525,0.1526,0.1482,0.148,0.1477,0.1476,0.1474,0,0.0462,0.0469,0.0586,0.0618,0.0703,0.0803,0.0869,0.1042,0.1117,0.1306,0.1324,0.1469,0.1536,0.1552,0.1633,0.1604,0.1602,0.1547,0.1562,0.1516,0.1505,0.1509,0.1513,0.1471,0.147,0.147,0.1469,0,0.0384,0.0421,0.0456,0.0538,0.0621,0.0692,0.0827,0.0882,0.1064,0.1185,0.13,0.1371,0.1442,0.1505,0.1516,0.1497,0.1569,0.1524,0.1527,0.1541,0.1502,0.1494,0.15,0.1462,0.1463,0.1464,0.1464,0,0.0325,0.0324,0.038,0.0451,0.0524,0.0587,0.0672,0.0795,0.09,0.1132,0.1163,0.1304,0.1434,0.1446,0.1453,0.1451,0.1418,0.1358,0.1369,0.1378,0.1406,0.1345,0.1236,0,0,0,0,0,0.0267,0.027,0.0304,0.0373,0.0434,0.0502,0.0636,0.0725,0.0919,0.0966,0.1079,0.1151,0.1231,0.1301,0.1275,0.1372,0.1395,0.1333,0.1324,0.1422,0.143,0.148,0,0,0,0,0,0,0.0219,0.0245,0.0272,0.0305,0.0338,0.0421,0.0505,0.0628,0.0685,0.0874,0.0925,0.1059,0.1144,0.1223,0.1243,0.126,0.1227,0.1421,0.1417,0.1417,0.1425,0.1431,0.1486,0,0,0,0,0]},{"header":{"parameterUnit":"m.s-1","parameterCategory":2,"la1":30.2991,"la2":30.254,"lo1":-89.0895,"lo2":-89.0444,"dy":0.0017,"dx":0.0017,"nx":28,"ny":28,"refTime":"2024-06-12T21:00:00:Z","depth":"4","parameterNumber":3,"parameterNumberName":"V-component_of_CURRENTS"},"data":[0,0,0,0,0,0,0,0,0,0,0,0,0,0,0,0,0,0,0,0,0,0,0,0,0,0,0,0,0,0,0,0,0,0,0,0,0,0,0,0,0,0,0,0,0,0,0,0,0,0,0,0,0,0,0,0,0,0,0.0099,0.0099,0,0.0209,0.021,0.0212,0.0319,0.0319,0.032,0.0321,0.0379,0.038,0.0381,0,0,0,0,0,0,0,0,0,0,0,0,0,0.0053,0.0053,0.0098,0.0099,0.01,0.0208,0.0211,0.0213,0.0318,0.0319,0.032,0.0321,0.0379,0.038,0.0381,0,0,0,0,0,0,0,0,0,0,0,0,0,0.0115,0.0053,0.0098,0.0161,0.0167,0.0208,0.0211,0.0213,0.0318,0.0319,0.0321,0.0322,0.0378,0.038,0.0381,0.0365,0,0,0.0385,0.0385,0,0,0,0,0,0,0,0,0.0111,0.0117,0.0151,0.0157,0.0164,0.0245,0.0216,0.0259,0.0318,0.0268,0.0321,0.0322,0.0324,0.033,0.0358,0.0368,0.0371,0.0385,0.0386,0.0386,0.0387,0,0,0,0,0,0,0,0.0106,0.0113,0.0149,0.0152,0.0159,0.0208,0.0218,0.0226,0.0292,0.0272,0.0279,0.028,0.0329,0.0357,0.036,0.0372,0.0385,0.0386,0.0387,0.0387,0.0321,0.0319,0,0,0,0,0,0,0.0075,0.0109,0.0145,0.0151,0.0132,0.0207,0.0219,0.0223,0.0294,0.0304,0.0279,0.0285,0.0354,0.0359,0.0362,0.036,0.0386,0.0387,0.0388,0.0323,0.032,0.0318,0,0,0,0,0,0,0.0073,0.0077,0.0141,0.0127,0.0138,0.0206,0.021,0.0225,0.0262,0.0298,0.0309,0.0301,0.0355,0.0361,0.0395,0.0362,0.0388,0.0389,0.0326,0.0323,0.0319,0.0346,0,0,0,0,0,0,0.0072,0.0076,0.0075,0.0125,0.0137,0.0179,0.0209,0.0226,0.0257,0.0266,0.032,0.0327,0.0357,0.0393,0.0396,0.0364,0.039,0.033,0.0325,0.032,0.0348,0.0343,0.0339,0,0,0,0,0,0.007,0.0081,0.0074,0.0079,0.0132,0.0179,0.0191,0.0247,0.0256,0.0283,0.0322,0.0325,0.0362,0.0395,0.0398,0.0365,0.0332,0.0326,0.0321,0.035,0.0344,0.0339,0,0,0,0,0,0,0.0088,0.0092,0.0088,0.0105,0.0134,0.0195,0.0221,0.0241,0.0294,0.0303,0.0333,0.0344,0.0347,0.0343,0.0377,0.032,0.0329,0.0324,0.035,0.0345,0.034,0.0372,0.0391,0,0,0,0,0,0.0076,0.0072,0.0094,0.0109,0.0118,0.016,0.0184,0.0219,0.0263,0.029,0.0325,0.0331,0.0321,0.033,0.0333,0.0327,0.0291,0.0288,0.0284,0.0281,0.0301,0.0203,0.0194,0.0299,0.0299,0.0299,0,0,0.0091,0.0087,0.0091,0.0108,0.0136,0.0177,0.0182,0.0224,0.0263,0.0281,0.0348,0.033,0.0314,0.0315,0.0309,0.0316,0.0227,0.0274,0.0272,0.0295,0.0197,0.0187,0.0178,0.0295,0.0296,0.0297,0,0,0.0125,0.0108,0.0121,0.014,0.0163,0.0192,0.0196,0.0251,0.0278,0.0326,0.032,0.0299,0.0319,0.0298,0.0284,0.0247,0.0207,0.0209,0.0227,0.0131,0.0123,0.0115,0.0053,0.0039,0.0209,0.0209,0.0209,0,0.0149,0.0159,0.0139,0.0163,0.0187,0.0195,0.0241,0.0267,0.0331,0.0335,0.0352,0.0324,0.0313,0.0271,0.026,0.0242,0.0188,0.0262,0.013,0.0121,0.0113,0.0051,0.0036,0.021,0.021,0.021,0.0209,0,0.0194,0.0208,0.0223,0.0244,0.0267,0.0308,0.0327,0.035,0.0367,0.0384,0.036,0.0345,0.0323,0.0279,0.0276,0.0184,0.0165,0.0139,0.0158,0.0105,0.0041,0.0025,0.021,0.021,0.021,0.021,0,0,0.0242,0.0255,0.0261,0.028,0.0313,0.0343,0.0375,0.0402,0.0412,0.0427,0.0423,0.0379,0.0344,0.0321,0.0267,0.0187,0.0078,0.0144,0.0138,0.011,-0.0122,-0.0065,-0.0077,0.0021,0.0018,0.0016,-0.0142,0,0.0294,0.0344,0.034,0.0408,0.0437,0.0438,0.047,0.0482,0.0483,0.0479,0.0408,0.0391,0.0362,0.0331,0.0247,0.0125,0.0037,0.0125,-0.0089,-0.0094,-0.0016,-0.0094,0.0007,-0.0154,-0.0158,-0.0161,-0.0163,0,0.0339,0.0362,0.0432,0.0466,0.0481,0.0531,0.055,0.0579,0.0546,0.0535,0.0486,0.0435,0.0339,0.0304,0.0099,0.0153,0.0022,-0.0076,-0.0086,-0.0044,-0.0067,-0.0096,-0.0192,-0.019,-0.0187,-0.0185,-0.0184,0,0.0365,0.0425,0.0479,0.0498,0.0545,0.0575,0.0606,0.06,0.0608,0.0561,0.0541,0.0437,0.0372,0.0209,0.0048,0.0049,-0.0189,-0.0219,-0.0293,-0.029,-0.03,-0.029,-0.0395,-0.0395,-0.0395,-0.0394,-0.0394,0,0.0407,0.045,0.0502,0.0534,0.0602,0.0615,0.0667,0.0671,0.0653,0.0646,0.0571,0.0521,0.0336,0.0194,0.0039,-0.0149,-0.02,-0.0292,-0.0334,-0.0288,-0.0275,-0.0311,-0.0299,-0.04,-0.0399,-0.0398,-0.0397,0,0.0418,0.0456,0.0515,0.0582,0.0618,0.066,0.0725,0.074,0.0723,0.07,0.0682,0.0558,0.0383,0.0209,-0.0063,-0.0153,-0.0344,-0.0412,-0.0319,-0.0353,-0.0383,-0.0368,-0.0515,-0.0515,-0.0514,-0.0514,-0.0514,0,0.0424,0.0458,0.0552,0.0591,0.0634,0.0704,0.0751,0.0778,0.0781,0.0719,0.0693,0.054,0.044,0.0123,-0.0063,-0.0331,-0.0375,-0.0458,-0.0442,-0.0372,-0.04,-0.0386,-0.0372,-0.0513,-0.0513,-0.0513,-0.0513,0,0.0428,0.0466,0.0511,0.0608,0.068,0.0744,0.0806,0.0814,0.0817,0.0798,0.0692,0.0545,0.0347,0.0125,-0.0069,-0.0269,-0.0383,-0.0454,-0.0457,-0.0444,-0.0371,-0.0395,-0.0383,-0.0511,-0.0511,-0.0511,-0.0512,0,0.0423,0.0453,0.0529,0.0609,0.0692,0.0758,0.0796,0.0802,0.0815,0.0751,0.0711,0.0518,0.0405,0.0152,-0.0032,-0.0197,-0.0256,-0.0304,-0.0316,-0.032,-0.0198,-0.0073,-0.0165,0,0,0,0,0,0.041,0.0456,0.0526,0.0616,0.0693,0.0762,0.0817,0.0836,0.0842,0.0776,0.0749,0.0573,0.0311,0.0187,0.0024,-0.004,-0.0286,-0.0233,-0.0349,-0.0503,-0.0504,-0.0387,0,0,0,0,0,0,0.0404,0.0471,0.052,0.0613,0.0675,0.0775,0.0818,0.0825,0.0782,0.0755,0.0608,0.0551,0.0283,0.0402,0.0025,-0.0025,-0.0115,-0.0357,-0.0359,-0.0502,-0.0503,-0.0505,-0.0384,0,0,0,0,0]}]]